This is the latest recevied weather packets stored in our database for station/object IR1ZYZ-3. If no packets are shown the sender has not sent any weather packets the latest 10 day(s).
| Time | Temp. | Humidity | Pressure | Rain* | Wind** | Luminosity | Snow |
|---|---|---|---|---|---|---|---|
| 1787826148 | 33.33° C | 49% | 1016.8 hPa | - | - | - | - |
| 1787825543 | 32.78° C | 49% | 1016.8 hPa | - | - | - | - |
| 1787824938 | 32.22° C | 54% | 1017.1 hPa | - | - | - | - |
| 1787824333 | 31.67° C | 50% | 1017 hPa | - | - | - | - |
| 1787823729 | 31.11° C | - | - | - | - | - | - |
| 1787823729 | 31.11° C | 57% | 1017 hPa | - | - | - | - |
| 1787823124 | 31.67° C | 53% | 1017 hPa | - | - | - | - |
| 1787822525 | 32.78° C | 51% | 1016.9 hPa | - | - | - | - |
| 1787821915 | 31.67° C | 49% | 1016.9 hPa | - | - | - | - |
| 1787821311 | 31.67° C | 50% | 1016.8 hPa | - | - | - | - |
| 1787820706 | 31.11° C | 51% | 1016.6 hPa | - | - | - | - |
| 1787820102 | 30.56° C | 54% | 1016.5 hPa | - | - | - | - |
| 1787819498 | 30.56° C | 55% | 1016.4 hPa | - | - | - | - |
| 1787818893 | 30° C | 55% | 1016.1 hPa | - | - | - | - |
| 1787818288 | 30° C | 58% | 1016.2 hPa | - | - | - | - |
| 1787817683 | 29.44° C | 63% | 1016.2 hPa | - | - | - | - |
| 1787817079 | 28.33° C | 69% | 1016.3 hPa | - | - | - | - |
| 1787816474 | 27.78° C | 74% | 1016.3 hPa | - | - | - | - |
| 1787815870 | 27.22° C | 80% | 1016.4 hPa | - | - | - | - |
| 1787815265 | 26.67° C | 80% | 1016.4 hPa | - | - | - | - |
| 1787814661 | 26.11° C | 85% | 1016.6 hPa | - | - | - | - |
| 1787814056 | 25.56° C | 86% | 1016.8 hPa | - | - | - | - |
| 1787813452 | 25° C | 88% | 1016.8 hPa | - | - | - | - |
| 1787812846 | 25° C | 91% | 1016.8 hPa | - | - | - | - |
| 1787812241 | 24.44° C | 94% | 1017.1 hPa | - | - | - | - |
* Rain since midnight (hover to see other rain measurements)
** Current wind speed in m/s (hover to see current wind gust speed)